Year,Month,Day,Hour,Minute,Value (Times are PST for temperature in C)
2014,08,10,07,22,15.20
2014,08,10,07,23,15.30
2014,08,10,07,24,15.30
2014,08,10,07,25,15.40
2014,08,10,07,26,15.50
2014,08,10,07,27,15.50
2014,08,10,07,28,15.50
2014,08,10,07,29,15.60
2014,08,10,07,30,15.60
2014,08,10,07,31,15.70
2014,08,10,07,32,15.70
2014,08,10,07,33,15.80
2014,08,10,07,34,15.80
2014,08,10,07,35,15.90
2014,08,10,07,36,16.10
2014,08,10,07,37,16.10
2014,08,10,07,38,16.20
2014,08,10,07,39,16.30
2014,08,10,07,40,16.30
2014,08,10,07,41,16.40
2014,08,10,07,42,16.40
2014,08,10,07,43,16.40
2014,08,10,07,44,16.40
2014,08,10,07,45,16.40
2014,08,10,07,46,16.40
2014,08,10,07,47,16.40
2014,08,10,07,48,16.40
2014,08,10,07,49,16.60
2014,08,10,07,50,16.60
2014,08,10,07,51,16.70
2014,08,10,07,52,16.70
2014,08,10,07,53,16.80
2014,08,10,07,54,16.90
2014,08,10,07,55,16.90
2014,08,10,07,56,16.90
2014,08,10,07,57,16.90
2014,08,10,07,58,17.00
2014,08,10,07,59,16.90
2014,08,10,08,00,16.90
2014,08,10,08,01,16.80
2014,08,10,08,02,16.80
2014,08,10,08,03,16.80
2014,08,10,08,04,16.70
2014,08,10,08,05,16.70
2014,08,10,08,06,16.70
2014,08,10,08,07,16.80
2014,08,10,08,08,16.80
2014,08,10,08,09,16.80
2014,08,10,08,10,16.90
2014,08,10,08,11,16.90
2014,08,10,08,12,17.00
2014,08,10,08,13,17.00
2014,08,10,08,14,17.00
2014,08,10,08,15,17.10
2014,08,10,08,16,17.10
2014,08,10,08,17,17.20
2014,08,10,08,18,17.20
2014,08,10,08,19,17.20
2014,08,10,08,20,17.30
2014,08,10,08,21,17.30
2014,08,10,08,22,17.30
2014,08,10,08,23,17.30
2014,08,10,08,24,17.40
2014,08,10,08,25,17.50
2014,08,10,08,26,17.50
2014,08,10,08,27,17.50
2014,08,10,08,28,17.60
2014,08,10,08,29,17.60
2014,08,10,08,30,17.70
2014,08,10,08,31,17.70
2014,08,10,08,32,17.80
2014,08,10,08,33,17.80
2014,08,10,08,34,17.90
2014,08,10,08,35,17.90
2014,08,10,08,36,17.90
2014,08,10,08,37,18.10
2014,08,10,08,38,18.10
2014,08,10,08,39,18.20
2014,08,10,08,40,18.20
2014,08,10,08,41,18.20
2014,08,10,08,42,18.20
2014,08,10,08,43,18.20
2014,08,10,08,44,18.30
2014,08,10,08,45,18.30
2014,08,10,08,46,18.30
2014,08,10,08,47,18.30
2014,08,10,08,48,18.30
2014,08,10,08,49,18.30
2014,08,10,08,50,18.30
2014,08,10,08,51,18.30
2014,08,10,08,52,18.40
2014,08,10,08,53,18.40
2014,08,10,08,54,18.40
2014,08,10,08,56,18.40
2014,08,10,08,57,18.50
2014,08,10,08,58,18.50
2014,08,10,08,59,18.60
2014,08,10,09,00,18.70
2014,08,10,09,01,18.70
2014,08,10,09,02,18.80
2014,08,10,09,03,18.90
2014,08,10,09,04,18.90
2014,08,10,09,05,18.90
2014,08,10,09,06,19.10
2014,08,10,09,07,19.10
2014,08,10,09,08,19.10
2014,08,10,09,09,19.10
2014,08,10,09,10,19.10
2014,08,10,09,11,19.20
2014,08,10,09,12,19.30
2014,08,10,09,13,19.30
2014,08,10,09,14,19.30
2014,08,10,09,15,19.30
2014,08,10,09,16,19.40
2014,08,10,09,17,19.40
2014,08,10,09,18,19.40
2014,08,10,09,19,19.50
2014,08,10,09,20,19.50
2014,08,10,09,21,19.50
2014,08,10,09,22,19.60
2014,08,10,09,23,19.60
2014,08,10,09,24,19.70
2014,08,10,09,25,19.80
2014,08,10,09,26,19.80
2014,08,10,09,27,19.90
2014,08,10,09,28,19.90
2014,08,10,09,29,19.90
2014,08,10,09,30,19.90
2014,08,10,09,31,19.90
2014,08,10,09,32,19.90
2014,08,10,09,33,19.90
2014,08,10,09,34,19.90
2014,08,10,09,35,19.90
2014,08,10,09,36,20.10
2014,08,10,09,37,20.10
2014,08,10,09,38,20.20
2014,08,10,09,39,20.20
2014,08,10,09,40,20.20
2014,08,10,09,41,20.20
2014,08,10,09,42,20.30
2014,08,10,09,43,20.30
2014,08,10,09,44,20.40
2014,08,10,09,45,20.50
2014,08,10,09,46,20.60
2014,08,10,09,47,20.70
2014,08,10,09,48,20.70
2014,08,10,09,49,20.80
2014,08,10,09,50,20.90
2014,08,10,09,51,20.90
2014,08,10,09,52,20.90
2014,08,10,09,53,20.90
2014,08,10,09,54,21.00
2014,08,10,09,55,21.10
2014,08,10,09,56,21.10
2014,08,10,09,57,21.20
2014,08,10,09,58,21.30
2014,08,10,09,59,21.30
2014,08,10,10,00,21.30
2014,08,10,10,01,21.40
2014,08,10,10,02,21.40
2014,08,10,10,03,21.60
2014,08,10,10,04,21.60
2014,08,10,10,05,21.60
2014,08,10,10,06,21.60
2014,08,10,10,07,21.60
2014,08,10,10,08,21.40
2014,08,10,10,09,21.40
2014,08,10,10,10,21.30
2014,08,10,10,11,21.30
2014,08,10,10,12,21.30
2014,08,10,10,13,21.30
2014,08,10,10,14,21.30
2014,08,10,10,15,21.30
2014,08,10,10,16,21.30
2014,08,10,10,17,21.30
2014,08,10,10,18,21.30
2014,08,10,10,19,21.30
2014,08,10,10,20,21.40
2014,08,10,10,21,21.60
2014,08,10,10,22,21.60
2014,08,10,10,23,21.80
2014,08,10,10,24,21.90
2014,08,10,10,25,22.10
2014,08,10,10,26,22.20
2014,08,10,10,27,22.30
2014,08,10,10,28,22.40
2014,08,10,10,29,22.60
2014,08,10,10,30,22.80
2014,08,10,10,31,22.90
2014,08,10,10,32,22.90
2014,08,10,10,33,23.20
2014,08,10,10,34,23.30
2014,08,10,10,35,23.30
2014,08,10,10,36,23.30
2014,08,10,10,37,23.30
2014,08,10,10,38,23.30
2014,08,10,10,39,23.30
2014,08,10,10,40,23.30
2014,08,10,10,41,23.30
2014,08,10,10,42,23.30
2014,08,10,10,43,23.30
2014,08,10,10,44,23.40
2014,08,10,10,45,23.60
2014,08,10,10,46,23.60
2014,08,10,10,47,23.70
2014,08,10,10,48,23.70
2014,08,10,10,49,23.70
2014,08,10,10,50,23.80
2014,08,10,10,51,23.80
2014,08,10,10,52,23.80
2014,08,10,10,53,23.90
2014,08,10,10,54,23.90
2014,08,10,10,55,23.90
2014,08,10,10,56,24.10
2014,08,10,10,57,23.90
2014,08,10,10,58,23.90
2014,08,10,10,59,23.90
2014,08,10,11,00,23.90
2014,08,10,11,01,23.80
2014,08,10,11,02,23.80
2014,08,10,11,03,23.90
2014,08,10,11,04,23.90
2014,08,10,11,05,23.90
2014,08,10,11,06,24.10
2014,08,10,11,07,24.10
2014,08,10,11,08,24.10
2014,08,10,11,09,24.20
2014,08,10,11,10,24.30
2014,08,10,11,11,24.40
2014,08,10,11,12,24.40
2014,08,10,11,13,24.50
2014,08,10,11,14,24.60
2014,08,10,11,15,24.60
2014,08,10,11,16,24.70
2014,08,10,11,17,24.80
2014,08,10,11,18,24.90
2014,08,10,11,19,24.90
2014,08,10,11,20,25.00
2014,08,10,11,21,25.00
2014,08,10,11,22,25.10
2014,08,10,11,23,25.20
2014,08,10,11,24,25.30
2014,08,10,11,25,25.40
2014,08,10,11,26,25.50
2014,08,10,11,27,25.60
2014,08,10,11,28,25.70
2014,08,10,11,29,25.80
2014,08,10,11,30,25.90
2014,08,10,11,31,26.00
2014,08,10,11,32,26.10
2014,08,10,11,33,26.10
2014,08,10,11,34,26.20
2014,08,10,11,35,26.20
2014,08,10,11,36,26.20
2014,08,10,11,37,26.20
2014,08,10,11,38,26.30
2014,08,10,11,39,26.30
2014,08,10,11,40,26.40
2014,08,10,11,41,26.40
2014,08,10,11,42,26.40
2014,08,10,11,43,26.40
2014,08,10,11,44,26.40
2014,08,10,11,45,26.40
2014,08,10,11,46,26.40
2014,08,10,11,47,26.30
2014,08,10,11,48,26.30
2014,08,10,11,49,26.20
2014,08,10,11,50,26.20
2014,08,10,11,51,26.30
2014,08,10,11,52,26.40
2014,08,10,11,53,26.40
2014,08,10,11,54,26.60
2014,08,10,11,55,26.70
2014,08,10,11,56,26.80
2014,08,10,11,57,26.90
2014,08,10,11,58,27.10
2014,08,10,11,59,27.20
2014,08,10,12,00,27.30
2014,08,10,12,01,27.30
2014,08,10,12,02,27.40
2014,08,10,12,03,27.60
2014,08,10,12,04,27.60
2014,08,10,12,05,27.70
2014,08,10,12,06,27.70
2014,08,10,12,07,27.80
2014,08,10,12,08,27.90
2014,08,10,12,09,27.90
2014,08,10,12,10,27.90
2014,08,10,12,11,27.90
2014,08,10,12,12,27.90
2014,08,10,12,13,27.80
2014,08,10,12,14,27.80
2014,08,10,12,15,27.80
2014,08,10,12,16,27.90
2014,08,10,12,17,28.00
2014,08,10,12,18,28.10
2014,08,10,12,19,28.20
2014,08,10,12,20,28.20
2014,08,10,12,21,28.30
2014,08,10,12,22,28.40
2014,08,10,12,23,28.40
2014,08,10,12,24,28.40
2014,08,10,12,25,28.60
2014,08,10,12,26,28.60
2014,08,10,12,27,28.60
2014,08,10,12,28,28.60
2014,08,10,12,29,28.70
2014,08,10,12,30,28.60
2014,08,10,12,31,28.70
2014,08,10,12,32,28.70
2014,08,10,12,33,28.70
2014,08,10,12,34,28.80
2014,08,10,12,35,28.80
2014,08,10,12,36,28.90
2014,08,10,12,37,28.90
2014,08,10,12,38,28.90
2014,08,10,12,39,29.10
2014,08,10,12,40,29.10
2014,08,10,12,41,29.20
2014,08,10,12,42,29.30
2014,08,10,12,43,29.30
2014,08,10,12,44,29.40
2014,08,10,12,45,29.40
2014,08,10,12,46,29.40
2014,08,10,12,47,29.50
2014,08,10,12,48,29.50
2014,08,10,12,49,29.60
2014,08,10,12,50,29.50
2014,08,10,12,51,29.50
2014,08,10,12,52,29.40
2014,08,10,12,53,29.40
2014,08,10,12,54,29.50
2014,08,10,12,55,29.50
2014,08,10,12,56,29.60
2014,08,10,12,57,29.60
2014,08,10,12,58,29.70
2014,08,10,12,59,29.80
2014,08,10,13,00,29.80
2014,08,10,13,01,29.80
2014,08,10,13,02,29.80
2014,08,10,13,03,29.80
2014,08,10,13,04,29.90
2014,08,10,13,05,29.90
2014,08,10,13,06,30.10
2014,08,10,13,07,30.10
2014,08,10,13,08,30.10
2014,08,10,13,09,30.20
2014,08,10,13,10,30.20
2014,08,10,13,11,30.20
2014,08,10,13,12,30.20
2014,08,10,13,13,30.20
2014,08,10,13,14,30.30
2014,08,10,13,15,30.40
2014,08,10,13,16,30.40
2014,08,10,13,17,30.40
2014,08,10,13,18,30.40
2014,08,10,13,19,30.40
2014,08,10,13,20,30.60
2014,08,10,13,21,30.60
2014,08,10,13,22,30.60
2014,08,10,13,23,30.60
2014,08,10,13,24,30.60
2014,08,10,13,25,30.40
2014,08,10,13,26,30.40
2014,08,10,13,27,30.30
2014,08,10,13,28,30.40
2014,08,10,13,29,30.40
2014,08,10,13,30,30.40
2014,08,10,13,31,30.60
2014,08,10,13,32,30.70
2014,08,10,13,33,30.80
2014,08,10,13,34,30.90
2014,08,10,13,35,31.10
2014,08,10,13,36,31.20
2014,08,10,13,37,31.30
2014,08,10,13,38,31.30
2014,08,10,13,39,31.40
2014,08,10,13,40,31.60
2014,08,10,13,41,31.60
2014,08,10,13,42,31.70
2014,08,10,13,43,31.80
2014,08,10,13,44,31.80
2014,08,10,13,45,31.90
2014,08,10,13,46,32.10
2014,08,10,13,47,32.20
2014,08,10,13,48,32.20
2014,08,10,13,49,32.30
2014,08,10,13,50,32.40
2014,08,10,13,51,32.40
2014,08,10,13,52,32.40
2014,08,10,13,53,32.30
2014,08,10,13,54,32.30
2014,08,10,13,55,32.20
2014,08,10,13,56,32.10
2014,08,10,13,57,32.10
2014,08,10,13,58,31.90
2014,08,10,13,59,31.80
2014,08,10,14,00,31.80
2014,08,10,14,01,31.70
2014,08,10,14,02,31.70
2014,08,10,14,03,31.60
2014,08,10,14,04,31.60
2014,08,10,14,05,31.40
2014,08,10,14,06,31.30
2014,08,10,14,07,31.20
2014,08,10,14,08,31.20
2014,08,10,14,09,31.20
2014,08,10,14,10,31.30
2014,08,10,14,11,31.30
2014,08,10,14,12,31.30
2014,08,10,14,13,31.40
2014,08,10,14,14,31.40
2014,08,10,14,15,31.60
2014,08,10,14,16,31.70
2014,08,10,14,17,31.70
2014,08,10,14,18,31.70
2014,08,10,14,19,31.80
2014,08,10,14,20,31.80
2014,08,10,14,21,31.80
2014,08,10,14,22,31.80
2014,08,10,14,23,31.90
2014,08,10,14,24,31.90
2014,08,10,14,25,32.10
2014,08,10,14,26,32.20
2014,08,10,14,27,32.20
2014,08,10,14,28,32.20
2014,08,10,14,29,32.20
2014,08,10,14,30,32.20
2014,08,10,14,31,32.20
2014,08,10,14,32,32.20
2014,08,10,14,33,32.20
2014,08,10,14,34,32.20
2014,08,10,14,35,32.20
2014,08,10,14,36,32.20
2014,08,10,14,37,32.30
2014,08,10,14,38,32.30
2014,08,10,14,39,32.30
2014,08,10,14,40,32.30
2014,08,10,14,41,32.30
2014,08,10,14,42,32.30
2014,08,10,14,43,32.30
2014,08,10,14,44,32.30
2014,08,10,14,45,32.30
2014,08,10,14,46,32.30
2014,08,10,14,47,32.30
2014,08,10,14,48,32.30
2014,08,10,14,49,32.30
2014,08,10,14,50,32.30
2014,08,10,14,51,32.20
2014,08,10,14,52,32.30
2014,08,10,14,53,32.30
2014,08,10,14,54,32.40
2014,08,10,14,55,32.40
2014,08,10,14,56,32.40
2014,08,10,14,57,32.50
2014,08,10,14,58,32.50
2014,08,10,14,59,32.50
2014,08,10,15,00,32.50
2014,08,10,15,01,32.50
2014,08,10,15,02,32.60
2014,08,10,15,03,32.60
2014,08,10,15,04,32.80
2014,08,10,15,05,32.90
2014,08,10,15,06,33.00
2014,08,10,15,07,33.10
2014,08,10,15,08,33.20
2014,08,10,15,09,33.40
2014,08,10,15,10,33.40
2014,08,10,15,11,33.50
2014,08,10,15,12,33.50
2014,08,10,15,13,33.60
2014,08,10,15,14,33.50
2014,08,10,15,15,33.50
2014,08,10,15,16,33.50
2014,08,10,15,17,33.50
2014,08,10,15,18,33.50
2014,08,10,15,19,33.50
2014,08,10,15,20,33.50
2014,08,10,15,21,33.60
2014,08,10,15,22,33.50
2014,08,10,15,23,33.60
2014,08,10,15,24,33.60
2014,08,10,15,25,33.60
2014,08,10,15,26,33.60
2014,08,10,15,27,33.60
2014,08,10,15,28,33.70
2014,08,10,15,29,33.70
2014,08,10,15,30,33.70
2014,08,10,15,31,33.70
2014,08,10,15,32,33.60
2014,08,10,15,33,33.60
2014,08,10,15,34,33.70
2014,08,10,15,35,33.70
2014,08,10,15,36,33.80
2014,08,10,15,37,34.00
2014,08,10,15,38,34.00
2014,08,10,15,39,34.10
2014,08,10,15,40,34.10
2014,08,10,15,41,34.20
2014,08,10,15,42,34.30
2014,08,10,15,43,34.40
2014,08,10,15,44,34.60
2014,08,10,15,45,34.70
2014,08,10,15,46,34.70
2014,08,10,15,47,34.70
2014,08,10,15,48,34.80
2014,08,10,15,49,34.90
2014,08,10,15,50,34.90
2014,08,10,15,51,34.90
2014,08,10,15,52,35.10
2014,08,10,15,53,34.90
2014,08,10,15,54,34.90
2014,08,10,15,55,34.90
2014,08,10,15,56,34.80
2014,08,10,15,57,34.70
2014,08,10,15,58,34.70
2014,08,10,15,59,34.70
2014,08,10,16,00,34.70
2014,08,10,16,01,34.70
2014,08,10,16,02,34.70
2014,08,10,16,03,34.60
2014,08,10,16,04,34.40
2014,08,10,16,05,34.40
2014,08,10,16,06,34.30
2014,08,10,16,07,34.30
2014,08,10,16,08,34.30
2014,08,10,16,09,34.10
2014,08,10,16,10,34.10
2014,08,10,16,11,34.10
2014,08,10,16,12,34.20
2014,08,10,16,13,34.30
2014,08,10,16,14,34.40
2014,08,10,16,15,34.40
2014,08,10,16,16,34.40
2014,08,10,16,17,34.40
2014,08,10,16,18,34.60
2014,08,10,16,19,34.40
2014,08,10,16,20,34.20
2014,08,10,16,21,34.20
2014,08,10,16,22,34.20
2014,08,10,16,23,34.20
2014,08,10,16,24,34.10
2014,08,10,16,25,34.10
2014,08,10,16,26,34.10
2014,08,10,16,27,34.10
2014,08,10,16,28,34.10
2014,08,10,16,29,34.20
2014,08,10,16,30,34.30
2014,08,10,16,31,34.40
2014,08,10,16,32,34.60
2014,08,10,16,33,34.70
2014,08,10,16,34,34.70
2014,08,10,16,35,34.70
2014,08,10,16,36,34.80
2014,08,10,16,37,34.80
2014,08,10,16,38,34.80
2014,08,10,16,39,34.70
2014,08,10,16,40,34.40
2014,08,10,16,41,34.30
2014,08,10,16,42,34.10
2014,08,10,16,43,34.00
2014,08,10,16,44,33.80
2014,08,10,16,45,33.80
2014,08,10,16,46,33.80
2014,08,10,16,47,34.00
2014,08,10,16,48,34.00
2014,08,10,16,49,33.80
2014,08,10,16,50,33.70
2014,08,10,16,51,33.80
2014,08,10,16,52,34.00
2014,08,10,16,53,34.00
2014,08,10,16,54,34.10
2014,08,10,16,55,34.10
2014,08,10,16,56,34.20
2014,08,10,16,57,34.30
2014,08,10,16,58,34.20
2014,08,10,16,59,34.20
2014,08,10,17,00,34.20
2014,08,10,17,01,34.10
2014,08,10,17,02,34.10
2014,08,10,17,03,34.10
2014,08,10,17,04,34.20
2014,08,10,17,05,34.30
2014,08,10,17,06,34.30
2014,08,10,17,07,34.40
2014,08,10,17,08,34.40
2014,08,10,17,09,34.60
2014,08,10,17,10,34.60
2014,08,10,17,11,34.70
2014,08,10,17,12,34.70
2014,08,10,17,13,34.70
2014,08,10,17,14,34.60
2014,08,10,17,15,34.60
2014,08,10,17,16,34.60
2014,08,10,17,17,34.60
2014,08,10,17,18,34.60
2014,08,10,17,19,34.40
2014,08,10,17,20,34.40
2014,08,10,17,21,34.30
2014,08,10,17,22,34.20
2014,08,10,17,23,34.10
2014,08,10,17,24,34.00
2014,08,10,17,25,34.00
2014,08,10,17,26,34.00
2014,08,10,17,27,33.80
2014,08,10,17,28,33.70
2014,08,10,17,29,33.70
2014,08,10,17,30,33.70
2014,08,10,17,31,33.60
2014,08,10,17,32,33.50
2014,08,10,17,33,33.50
2014,08,10,17,34,33.60
2014,08,10,17,35,33.60
2014,08,10,17,36,33.70
2014,08,10,17,37,33.80
2014,08,10,17,38,34.00
2014,08,10,17,39,34.10
2014,08,10,17,40,34.10
2014,08,10,17,41,34.10
2014,08,10,17,42,34.10
2014,08,10,17,43,34.20
2014,08,10,17,44,34.20
2014,08,10,17,45,34.30
2014,08,10,17,46,34.30
2014,08,10,17,47,34.30
2014,08,10,17,48,34.30
2014,08,10,17,49,34.30
2014,08,10,17,50,34.10
2014,08,10,17,51,34.00
2014,08,10,17,52,34.00
2014,08,10,17,53,33.70
2014,08,10,17,54,33.60
2014,08,10,17,55,33.60
2014,08,10,17,56,33.50
2014,08,10,17,57,33.50
2014,08,10,17,58,33.50
2014,08,10,17,59,33.60
2014,08,10,18,00,33.60
2014,08,10,18,01,33.60
2014,08,10,18,02,33.60
2014,08,10,18,03,33.60
2014,08,10,18,04,33.60
2014,08,10,18,05,33.70
2014,08,10,18,06,33.80
2014,08,10,18,07,34.00
2014,08,10,18,08,34.00
2014,08,10,18,09,34.00
2014,08,10,18,10,34.10
2014,08,10,18,11,34.10
2014,08,10,18,12,34.10
2014,08,10,18,13,34.10
2014,08,10,18,14,34.10
2014,08,10,18,15,34.10
2014,08,10,18,16,34.20
2014,08,10,18,17,34.20
2014,08,10,18,18,34.30
2014,08,10,18,19,34.20
2014,08,10,18,20,34.20
2014,08,10,18,21,34.10
2014,08,10,18,22,34.10
2014,08,10,18,23,34.00
2014,08,10,18,24,34.00
2014,08,10,18,25,34.00
2014,08,10,18,26,33.80
2014,08,10,18,27,33.70
2014,08,10,18,28,33.70
2014,08,10,18,29,33.60
2014,08,10,18,30,33.60
2014,08,10,18,31,33.60
2014,08,10,18,32,33.60
2014,08,10,18,33,33.60
2014,08,10,18,34,33.50
2014,08,10,18,35,33.40
2014,08,10,18,36,33.40
2014,08,10,18,37,33.10
2014,08,10,18,38,33.10
2014,08,10,18,39,33.00
2014,08,10,18,40,33.00
2014,08,10,18,41,32.90
2014,08,10,18,42,32.90
2014,08,10,18,43,32.90
2014,08,10,18,44,32.90
2014,08,10,18,45,33.00
2014,08,10,18,46,33.00
2014,08,10,18,47,33.10
2014,08,10,18,48,33.10
2014,08,10,18,49,33.20
2014,08,10,18,50,33.20
2014,08,10,18,51,33.40
2014,08,10,18,52,33.40
2014,08,10,18,53,33.20
2014,08,10,18,54,33.10
2014,08,10,18,55,33.10
2014,08,10,18,56,33.00
2014,08,10,18,57,32.90
2014,08,10,18,58,32.80
2014,08,10,18,59,32.80
2014,08,10,19,00,32.60
2014,08,10,19,01,32.60
2014,08,10,19,02,32.60
2014,08,10,19,03,32.60
2014,08,10,19,04,32.60
2014,08,10,19,05,32.80
2014,08,10,19,06,32.80
2014,08,10,19,07,32.90
2014,08,10,19,08,33.00
2014,08,10,19,09,33.00
2014,08,10,19,11,33.00
2014,08,10,19,12,33.00
2014,08,10,19,13,33.00
2014,08,10,19,14,33.00
2014,08,10,19,15,33.00
2014,08,10,19,16,33.00
2014,08,10,19,17,33.00
2014,08,10,19,18,33.00
2014,08,10,19,19,33.00
2014,08,10,19,20,32.90
2014,08,10,19,21,32.90
2014,08,10,19,22,32.90
2014,08,10,19,23,32.90
2014,08,10,19,24,32.90
2014,08,10,19,25,32.80
2014,08,10,19,26,32.80
2014,08,10,19,27,32.80
2014,08,10,19,28,32.80
2014,08,10,19,29,32.60
2014,08,10,19,30,32.50
2014,08,10,19,31,32.50
2014,08,10,19,32,32.50
2014,08,10,19,33,32.50
2014,08,10,19,34,32.50
2014,08,10,19,35,32.50
2014,08,10,19,36,32.50
2014,08,10,19,37,32.50
2014,08,10,19,38,32.50
2014,08,10,19,39,32.50
2014,08,10,19,40,32.50
2014,08,10,19,41,32.50
